Terminal Aerodrome Forecast
Issued by NWS

Home | Current Version | Previous Version | Text Only | Print | Product List | Glossary On
Versions: 1 2 3 4 5 6 7 8 9 10 11 12 13
000
FTUS42 TJSJ 231124
TAFISX
TAF
TISX 231124Z 2312/2412 03003KT P6SM SKC
     FM231300 10012KT P6SM FEW025
     FM231700 11011KT P6SM VCSH SCT025
     FM232100 10008KT P6SM FEW025=

USA.gov is the U.S. government's official web portal to all federal, state and local government web resources and services.